SDA-1671

operational
NORAD ID: 65981 Int'l Des: 2025-230 Owner: SDA Country: US
NOTLE

About SDA-1671

Description loading...

Live Position

Loading 3D Globe...

Upcoming Passes

Altitude History

Altitude vs Time

uPlot chart will show altitude changes over time

Two-Line Element Set

1 65981U 25230H 25318.40068727 .00000311 00000-0 26276-3 0 9995
2 65981 81.3031 50.8692 0004918 80.6800 279.4913 13.85364726 4083
Epoch: Nov 14, 2025 • Age: 17 hours

Current Status

Altitude 959.4 km
Velocity 7.37 km/s
Sub-Earth Point -34.70°S, 52.01°W
Launch Date Oct 14, 2025
Age 32 days
Type other

Technical Details

Classification Payload
Mass 400.00 kg
Dry Mass 400.00 kg
Total Mass 400.00 kg
Length 0.60 m
Diameter 0.40 m
Span 3.60 m
Shape Box + panels
Manufacturer LMSSD/TERRAN
Bus Type LM-T1TL
Phase Status In Orbit
Owner/State SDA/US

Large Constellations

Loading constellations...